TimeCST,TemperatureF,Dew PointF,Humidity,Sea Level PressureIn,VisibilityMPH,Wind Direction,Wind SpeedMPH,Gust SpeedMPH,PrecipitationIn,Events,Conditions,WindDirDegrees,DateUTC
12:54 AM,66.0,57.0,73,29.79,10.0,South,20.7,28.8,N/A,,Clear,170,2012-12-03 06:54:00
1:54 AM,64.9,57.0,75,29.77,10.0,South,18.4,28.8,N/A,,Clear,170,2012-12-03 07:54:00
2:54 AM,64.9,57.9,78,29.76,10.0,South,20.7,31.1,N/A,,Clear,180,2012-12-03 08:54:00
3:54 AM,64.0,57.9,80,29.74,10.0,South,19.6,28.8,N/A,,Clear,180,2012-12-03 09:54:00
4:54 AM,64.9,57.9,78,29.73,10.0,South,23.0,31.1,N/A,,Clear,180,2012-12-03 10:54:00
5:54 AM,64.0,57.9,80,29.73,10.0,South,23.0,31.1,N/A,,Clear,190,2012-12-03 11:54:00
6:54 AM,64.0,57.9,80,29.73,10.0,South,23.0,32.2,N/A,,Clear,190,2012-12-03 12:54:00
7:54 AM,63.0,57.9,84,29.74,10.0,South,19.6,28.8,N/A,,Partly Cloudy,190,2012-12-03 13:54:00
8:54 AM,64.9,59.0,81,29.76,9.0,South,25.3,32.2,N/A,,Mostly Cloudy,190,2012-12-03 14:54:00
9:54 AM,66.9,59.0,76,29.78,10.0,SSW,26.5,34.5,N/A,,Scattered Clouds,200,2012-12-03 15:54:00
10:54 AM,71.1,57.9,63,29.77,10.0,SSW,26.5,34.5,N/A,,Partly Cloudy,200,2012-12-03 16:54:00
11:54 AM,73.0,55.9,55,29.76,10.0,SSW,27.6,34.5,N/A,,Partly Cloudy,200,2012-12-03 17:54:00
12:54 PM,73.9,53.1,48,29.76,10.0,SW,20.7,-,N/A,,Mostly Cloudy,220,2012-12-03 18:54:00
1:54 PM,73.0,52.0,48,29.76,10.0,WSW,16.1,-,N/A,,Mostly Cloudy,240,2012-12-03 19:54:00
2:54 PM,73.0,50.0,44,29.78,10.0,SW,11.5,-,N/A,,Mostly Cloudy,230,2012-12-03 20:54:00
3:54 PM,71.1,50.0,47,29.81,10.0,NW,10.4,-,N/A,,Clear,310,2012-12-03 21:54:00
4:54 PM,62.1,37.9,41,29.86,10.0,North,17.3,-,N/A,,Clear,350,2012-12-03 22:54:00
5:54 PM,59.0,41.0,51,29.90,10.0,North,15.0,-,N/A,,Clear,360,2012-12-03 23:54:00
6:54 PM,57.0,41.0,55,29.93,10.0,North,16.1,-,N/A,,Clear,360,2012-12-04 00:54:00
7:54 PM,55.9,41.0,57,29.97,10.0,North,15.0,-,N/A,,Clear,10,2012-12-04 01:54:00
8:54 PM,55.9,42.1,60,29.99,10.0,North,11.5,-,N/A,,Clear,10,2012-12-04 02:54:00
9:54 PM,55.9,42.1,60,30.01,10.0,North,13.8,-,N/A,,Clear,10,2012-12-04 03:54:00
10:54 PM,55.0,39.9,57,30.03,10.0,North,13.8,-,N/A,,Clear,10,2012-12-04 04:54:00
11:54 PM,53.1,39.0,59,30.06,10.0,North,10.4,-,N/A,,Clear,360,2012-12-04 05:54:00